Location: Lac de la Montange Noire
(46.1952°N, 74.2701°W)
Time: 15:50:28
(UTC-04:00)

Iridium 42 - Visible Passes

Search period start: 21 August 2017 00:00
Search period end: 31 August 2017 00:00
Orbit: 775 x 778 km, 86.4° (Epoch: 20 August)

Date Brightness Start Highest point End Pass type
(mag) Time Alt. Az. Time Alt. Az. Time Alt. Az.
21 Aug 5.5 02:40:41 73° E 02:40:42 73° E 02:45:55 10° N visible
21 Aug 7.2 04:21:09 15° W 04:22:01 16° WNW 04:25:08 10° NNW visible
22 Aug 6.4 02:07:10 41° E 02:07:10 41° E 02:11:52 10° NNE visible
22 Aug 6.6 03:47:38 27° W 03:47:50 27° WNW 03:52:14 10° NNW visible
23 Aug 7.3 01:33:38 24° ENE 01:33:38 24° ENE 01:37:30 10° NNE visible
23 Aug 6.0 03:14:06 46° WNW 03:14:06 46° WNW 03:18:50 10° N visible
24 Aug 7.9 01:00:05 14° ENE 01:00:05 14° ENE 01:02:27 10° NE visible
24 Aug 5.7 02:40:33 68° NNW 02:40:33 68° NNW 02:45:09 10° N visible
24 Aug 7.6 04:21:01 11° WNW 04:21:29 11° WNW 04:23:07 10° NW visible
25 Aug 6.2 02:07:00 50° NE 02:07:00 50° NE 02:11:14 10° N visible
25 Aug 7.1 03:47:28 20° WNW 03:47:28 20° WNW 03:51:01 10° NNW visible
26 Aug 7.0 01:33:27 30° ENE 01:33:27 30° ENE 01:37:04 10° NNE visible
26 Aug 6.6 03:13:54 32° WNW 03:13:54 32° WNW 03:17:51 10° NNW visible
27 Aug 7.7 00:59:53 18° ENE 00:59:53 18° ENE 01:02:29 10° NE visible
27 Aug 6.2 02:40:21 47° NNW 02:40:21 47° NNW 02:44:19 10° N visible
28 Aug 8.1 00:26:19 10° ENE 00:26:19 10° ENE 00:26:21 10° ENE visible
28 Aug 6.4 02:06:46 48° NNE 02:06:46 48° NNE 02:10:31 10° N visible
28 Aug 7.5 03:47:14 14° WNW 03:47:14 14° WNW 03:49:31 10° NW visible
29 Aug 6.9 01:33:12 34° NE 01:33:12 34° NE 01:36:30 10° NNE visible
29 Aug 7.1 03:13:39 23° NW 03:13:39 23° NW 03:16:45 10° NNW visible
30 Aug 7.5 00:59:36 22° NE 00:59:36 22° NE 01:02:11 10° NNE visible
30 Aug 6.8 02:40:04 33° NW 02:40:04 33° NW 02:43:23 10° N visible
